#timestamp,LO_Frequency,Hit,StdDev 
1671440415.5,286047000.7,N
1671440435.4,286047001.1,N
1671440455.2,286047000.2,N
1671440475.0,286047002.7,N
1671440475.9,286047002.7,N
1671440495.8,286047001.3,N
1671440515.6,286047003.0,N
1671440535.5,286047001.6,N
1671440555.3,286047002.7,N
1671440575.1,286047000.4,N
1671440595.9,286047000.5,N
1671440615.7,286047002.2,N
1671440635.6,286047001.4,N
1671440655.4,286047001.7,N
1671440675.2,286047003.1,N
1671440695.1,286047001.4,N
1671440696.0,286047001.4,N
1671440715.8,286047002.1,N
1671440735.6,286047000.2,N
1671440755.5,286047000.4,N
1671440775.3,286046999.9,N
1671440795.2,286046999.7,N
1671440815.9,286047001.9,N
1671440835.7,286047001.9,N
1671440855.6,286047002.7,N
1671440875.4,286047002.4,N
1671440895.2,286047000.5,N
1671440915.1,286046998.9,N
1671440916.0,286046998.9,N
1671440935.8,286046995.6,Y
1671440955.7,286046995.6,P
1671440975.5,286046994.9,N
1671440995.3,286046995.9,N
1671441015.2,286046997.5,N
1671441035.0,286046997.1,N
1671441035.9,286046997.1,N
1671441055.7,286046997.3,N
1671441075.6,286046997.4,N
1671441095.4,286046997.9,N
1671441115.3,286046997.1,N
1671441135.1,286046998.6,N
1671441136.0,286046998.6,N
1671441155.8,286046998.7,N
1671441175.7,286046997.1,N
1671441195.5,286046996.6,N
1671441215.3,286046999.5,N
1671441235.2,286046997.7,N
1671441255.0,286046997.6,N
1671441255.9,286046997.6,N
1671441275.8,286046996.2,N
1671441295.6,286046996.6,N
1671441315.4,286046996.3,N
1671441335.3,286046994.1,Y
1671441355.1,286046997.9,P
1671441375.8,286046998.8,P
1671441395.7,286046998.8,N
1671441415.5,286047000.9,N
1671441435.4,286047000.1,N
1671441455.2,286046999.7,N
1671441475.0,286047002.4,N
1671441476.0,286047002.4,N
1671441495.8,286047004.4,N
1671441515.6,286046999.8,N
1671441535.5,286047002.8,N
1671441555.3,286047002.6,N
1671441575.1,286047001.4,N
1671441595.9,286047001.5,N
1671441615.7,286047002.2,N
1671441635.6,286047002.2,N
1671441655.4,286047002.0,N
1671441675.2,286047001.3,N
1671441695.1,286047005.9,Y
1671441696.0,286047005.9,P
1671441715.8,286047002.0,N
1671441735.7,286047002.4,N
1671441755.5,286047002.4,N
1671441775.3,286047002.6,N
1671441795.2,286046999.8,N
1671441815.0,286046999.5,N
1671441815.9,286046999.5,N
1671441835.8,286046998.3,N
1671441855.6,286046998.3,N
1671441875.4,286047000.9,N
1671441895.3,286047001.1,N
1671441915.1,286047000.9,N
1671441935.8,286046998.6,N
1671441955.7,286047000.9,N
1671441975.5,286047001.1,N
1671441995.4,286047001.1,N
1671442015.2,286047000.6,N
1671442035.0,286047000.6,N
1671442035.9,286047000.6,N
1671442055.8,286047000.8,N
1671442075.6,286047001.1,N
1671442095.4,286046999.0,N
1671442115.3,286046997.3,N
1671442135.1,286046995.2,N
1671442155.9,286046997.9,N
1671442175.7,286046997.7,N
1671442195.5,286046995.8,N
1671442215.4,286046995.0,N
1671442235.2,286046996.3,N
1671442255.0,286046994.5,N
1671442255.9,286046994.5,N
1671442275.8,286046993.6,N
1671442295.6,286046996.3,N
1671442315.5,286046996.8,N
1671442335.3,286046999.3,N
1671442355.1,286047000.3,N
1671442375.9,286046998.5,N
1671442395.7,286047000.5,N
1671442415.6,286047000.3,N
1671442435.4,286047002.3,N
1671442455.2,286047002.4,N
1671442475.1,286046998.5,N
1671442476.0,286046998.5,N
1671442495.8,286046996.8,N
1671442515.7,286046998.0,N
1671442535.5,286046995.2,N
1671442555.3,286046995.8,N
1671442575.2,286046992.4,Y
1671442595.0,286046997.6,P
1671442595.9,286046997.6,P
1671442615.8,286046997.0,P
1671442635.6,286046999.4,N
1671442655.4,286047000.8,N
1671442675.3,286046999.8,N
1671442695.1,286047002.0,N
1671442715.8,286047001.7,N
1671442735.7,286047002.1,N
1671442755.5,286047002.6,N
1671442775.3,286047002.6,N
1671442795.2,286047002.1,N
1671442815.0,286047001.4,N
1671442815.9,286047001.4,N
1671442835.8,286047003.7,N
1671442855.6,286047003.0,N
1671442875.4,286047003.5,N
1671442895.3,286047002.8,N
1671442915.1,286047002.1,N
1671442935.9,286047000.8,N
1671442955.7,286046997.1,N
1671442975.5,286046999.2,N
1671442995.4,286046999.6,N
1671443015.2,286046999.0,N
1671443035.0,286046998.6,N
1671443035.9,286046998.6,N
1671443055.8,286046997.2,N
1671443075.6,286046997.0,N
1671443095.5,286046998.8,N
1671443115.3,286046998.5,N
1671443135.1,286046998.5,N
1671443155.9,286047002.2,N
1671443175.7,286047001.8,N
1671443195.5,286047001.3,N
1671443215.4,286047003.4,N
1671443235.2,286047003.0,N
1671443255.1,286047005.6,N
1671443256.0,286047005.6,N
1671443275.8,286047006.0,N
1671443295.6,286047005.6,N
1671443315.5,286047004.8,N
1671443335.3,286047006.0,N
1671443355.1,286047003.6,N
1671443375.9,286047003.8,N
1671443395.7,286047003.4,N
1671443415.6,286047003.3,N
1671443435.4,286047003.7,N
1671443455.2,286047003.8,N
1671443475.1,286047003.2,N
1671443476.0,286047003.2,N
1671443495.8,286047003.5,N
1671443515.7,286047005.9,N
1671443535.5,286047003.5,N
1671443555.3,286047005.0,N
1671443575.2,286047011.9,Y
1671443595.0,286047001.6,P
1671443595.9,286047001.6,P
1671443615.8,286047002.0,P
1671443635.6,286047002.1,Y
1671443655.4,286047001.9,P
1671443675.3,286046998.9,P
1671443695.1,286046996.1,N
1671443715.9,286046997.4,N
1671443735.7,286046996.9,N
1671443755.5,286046999.1,N
1671443775.4,286046995.0,N
1671443795.2,286046995.1,N
1671443815.0,286046995.5,N
1671443815.9,286046995.5,N
1671443835.8,286046994.5,N
1671443855.6,286046995.2,N
1671443875.4,286046997.2,N
1671443895.3,286046998.4,N
1671443915.1,286047001.2,N
1671443935.9,286047001.2,N
1671443955.7,286047000.8,N
1671443975.5,286047001.1,N
1671443995.4,286047002.8,N
